Temp
-12 -13 -13 -13 -13 -13 -13 -13 -14 -13 -13 -13 -13 -14 -14 -13 -13 -13 -13 -13 -13 -13 -13 -13 -13 -13 -13 -13 -13 -12 -12 -12 -12 -12 -13 -13 -13 -13 -13 -13 -13 -13 -13 -13 -13 -13 -13 -13 -13 -14 -13 -13 -13 -13 -13 -14 -13 -13 -13 -13 -13 -13 -13
-13 -13 -13 -13 -13 -13 -13 -13 -14 -14 -14 -14 -14 -14 -14 -14 -13 -13 -13 -13 -13 -13 -13 -13 -13 -13 -13 -13 -13 -13 -13 -12 -12 -13 -13 -13 -13 -13 -13 -13 -13 -13 -13 -13 -13 -13 -13 -14 -14 -14 -14 -14 -14 -14 -14 -14 -14 -13 -13 -13 -14 -14 -13
-13 -13 -13 -13 -13 -13 -13 -13 -13 -14 -14 -14 -14 -14 -14 -14 -14 -14 -14 -14 -13 -13 -13 -13 -13 -13 -13 -13 -13 -13 -13 -12 -13 -13 -13 -13 -13 -13 -13 -13 -13 -14 -14 -13 -14 -14 -14 -14 -14 -14 -14 -14 -14 -14 -14 -14 -14 -14 -14 -14 -14 -14 -14
-13 -13 -13 -13 -13 -13 -13 -13 -13 -14 -14 -14 -14 -14 -14 -14 -14 -14 -14 -14 -13 -13 -13 -13 -13 -13 -13 -13 -13 -13 -13 -13 -13 -13 -13 -13 -13 -13 -13 -13 -13 -14 -14 -14 -14 -14 -14 -14 -14 -14 -14 -14 -14 -14 -14 -14 -14 -14 -14 -14 -14 -14 -14
-13 -13 -13 -13 -13 -13 -13 -13 -13 -13 -13 -13 -14 -14 -14 -14 -14 -14 -14 -14 -14 -13 -13 -13 -13 -13 -13 -13 -13 -13 -13 -13 -13 -13 -13 -13 -13 -13 -13 -13 -13 -14 -14 -14 -14 -14 -14 -14 -14 -14 -14 -14 -14 -14 -14 -14 -14 -14 -14 -14 -14 -14 -14
-13 -13 -13 -14 -14 -14 -14 -13 -13 -13 -13 -14 -14 -14 -14 -14 -14 -14 -14 -14 -14 -14 -14 -13 -13 -13 -13 -13 -13 -13 -13 -13 -13 -13 -13 -13 -13 -13 -13 -13 -14 -14 -14 -14 -14 -14 -14 -14 -14 -14 -14 -14 -14 -14 -14 -14 -14 -14 -14 -14 -14 -14 -14
-13 -13 -13 -14 -14 -14 -14 -14 -14 -14 -14 -14 -14 -14 -14 -14 -14 -14 -14 -14 -14 -14 -14 -14 -14 -13 -13 -13 -13 -13 -13 -13 -13 -13 -13 -13 -13 -13 -13 -14 -14 -14 -14 -14 -14 -14 -14 -14 -14 -14 -14 -14 -14 -14 -14 -14 -14 -14 -14 -14 -14 -14 -14
-13 -13 -13 -14 -14 -14 -14 -14 -14 -14 -14 -14 -14 -14 -14 -14 -14 -14 -14 -14 -14 -14 -14 -14 -14 -14 -14 -14 -14 -13 -14 -14 -14 -14 -14 -13 -13 -13 -14 -14 -14 -14 -14 -14 -14 -14 -14 -14 -14 -14 -14 -14 -14 -14 -14 -14 -14 -14 -14 -14 -14 -14 -14
-13 -14 -14 -14 -14 -14 -14 -14 -14 -14 -14 -14 -14 -14 -14 -14 -14 -14 -14 -14 -14 -14 -14 -14 -14 -14 -14 -14 -14 -14 -14 -14 -14 -14 -14 -14 -14 -14 -14 -14 -14 -14 -14 -14 -14 -14 -14 -14 -14 -14 -14 -14 -14 -14 -14 -14 -14 -14 -14 -14 -14 -14 -14
-13 -13 -13 -13 -13 -14 -14 -14 -14 -14 -14 -14 -14 -14 -14 -14 -14 -14 -14 -14 -14 -14 -14 -14 -14 -14 -14 -14 -14 -14 -14 -14 -14 -14 -14 -14 -14 -14 -14 -14 -14 -14 -14 -14 -14 -14 -14 -14 -14 -14 -14 -14 -14 -14 -14 -14 -14 -14 -14 -14 -14 -14 -14
-13 -13 -13 -13 -13 -13 -13 -13 -14 -14 -14 -14 -14 -14 -14 -14 -14 -14 -14 -14 -14 -14 -14 -14 -14 -14 -14 -14 -14 -14 -14 -14 -14 -14 -14 -14 -14 -14 -14 -14 -14 -14 -14 -14 -14 -14 -14 -14 -14 -14 -14 -14 -14 -14 -14 -14 -14 -14 -14 -14 -14 -14 -14
-13 -13 -13 -13 -13 -13 -13 -13 -13 -14 -14 -14 -14 -14 -14 -14 -14 -14 -14 -14 -15 -15 -15 -14 -14 -14 -14 -14 -14 -14 -14 -15 -14 -14 -14 -14 -14 -14 -14 -14 -14 -14 -14 -14 -14 -14 -14 -14 -14 -14 -14 -14 -14 -14 -14 -14 -14 -14 -14 -14 -14 -14 -14
-13 -13 -13 -13 -12 -12 -12 -12 -13 -13 -14 -14 -14 -14 -14 -15 -15 -15 -15 -15 -15 -15 -15 -15 -15 -15 -14 -14 -14 -14 -14 -15 -14 -14 -14 -14 -14 -14 -14 -14 -14 -14 -14 -14 -14 -14 -14 -14 -14 -14 -14 -14 -14 -14 -14 -14 -14 -14 -14 -14 -14 -14 -14
-13 -13 -13 -13 -12 -12 -13 -13 -13 -13 -13 -14 -14 -14 -14 -14 -15 -15 -15 -15 -15 -15 -15 -15 -15 -15 -15 -15 -15 -15 -15 -15 -15 -15 -15 -14 -14 -14 -14 -14 -14 -14 -14 -14 -14 -14 -14 -14 -14 -14 -14 -14 -14 -14 -14 -15 -14 -14 -14 -14 -14 -14 -14
-14 -13 -13 -13 -13 -13 -13 -13 -13 -13 -13 -14 -14 -14 -14 -14 -15 -15 -15 -15 -15 -15 -15 -15 -15 -15 -15 -15 -15 -15 -15 -15 -15 -15 -15 -15 -14 -14 -14 -14 -14 -14 -14 -14 -14 -14 -14 -14 -14 -14 -14 -14 -14 -14 -15 -15 -15 -14 -14 -14 -14 -14 -14
-14 -13 -13 -13 -13 -14 -13 -13 -14 -14 -13 -14 -14 -14 -14 -14 -15 -15 -15 -15 -15 -15 -15 -15 -15 -15 -15 -15 -15 -15 -15 -15 -15 -15 -15 -15 -15 -15 -14 -14 -14 -14 -14 -14 -14 -14 -14 -14 -14 -14 -14 -14 -14 -14 -15 -15 -15 -14 -14 -14 -14 -14 -14
-14 -14 -14 -13 -14 -14 -14 -13 -14 -14 -13 -14 -14 -14 -14 -14 -15 -15 -15 -15 -15 -15 -15 -15 -15 -15 -15 -15 -15 -15 -15 -15 -15 -15 -15 -15 -15 -15 -15 -14 -14 -15 -14 -14 -14 -14 -14 -14 -14 -14 -14 -14 -14 -14 -15 -15 -15 -14 -14 -14 -14 -15 -15
-14 -14 -14 -14 -14 -15 -14 -14 -14 -14 -13 -14 -14 -14 -14 -14 -15 -15 -15 -15 -15 -15 -15 -15 -15 -15 -15 -15 -15 -15 -15 -15 -15 -15 -15 -15 -15 -15 -15 -15 -15 -15 -15 -15 -14 -14 -14 -14 -14 -14 -14 -14 -14 -14 -15 -15 -15 -15 -15 -15 -15 -15 -15
-14 -14 -14 -14 -14 -15 -14 -14 -14 -14 -14 -14 -14 -14 -14 -15 -15 -15 -15 -15 -15 -15 -15 -15 -15 -15 -15 -15 -15 -15 -15 -15 -15 -15 -15 -15 -15 -15 -15 -15 -15 -15 -15 -15 -15 -15 -14 -14 -14 -14 -15 -15 -14 -14 -15 -15 -15 -15 -15 -15 -15 -15 -15
-15 -14 -14 -14 -14 -14 -14 -14 -14 -14 -14 -14 -14 -14 -14 -14 -15 -15 -15 -15 -15 -15 -15 -15 -15 -15 -15 -15 -15 -16 -16 -15 -16 -16 -15 -15 -15 -15 -15 -15 -15 -15 -15 -15 -15 -15 -15 -15 -15 -15 -15 -15 -15 -15 -15 -15 -15 -15 -15 -15 -15 -15 -15
-15 -14 -14 -14 -14 -14 -14 -14 -14 -14 -14 -14 -14 -14 -14 -15 -15 -15 -15 -15 -16 -15 -15 -15 -15 -15 -15 -15 -16 -16 -16 -16 -16 -16 -16 -16 -16 -15 -15 -15 -15 -15 -15 -15 -15 -15 -15 -15 -15 -15 -15 -15 -15 -15 -15 -15 -15 -15 -15 -16 -16 -15 -15
-14 -14 -14 -14 -14 -14 -14 -14 -14 -14 -14 -14 -14 -14 -15 -15 -15 -15 -15 -15 -16 -16 -15 -15 -15 -15 -15 -15 -16 -16 -16 -16 -16 -16 -16 -16 -16 -16 -15 -15 -15 -15 -15 -15 -15 -15 -15 -15 -15 -15 -15 -15 -15 -15 -15 -16 -16 -16 -16 -16 -16 -16 -16
-14 -14 -14 -14 -14 -14 -14 -14 -14 -14 -14 -14 -14 -14 -15 -14 -15 -15 -15 -15 -15 -15 -15 -15 -15 -16 -16 -16 -16 -16 -16 -16 -16 -16 -16 -16 -16 -16 -16 -16 -16 -16 -16 -16 -15 -15 -15 -15 -16 -16 -16 -16 -16 -16 -16 -16 -16 -16 -16 -16 -16 -16 -16
-14 -14 -14 -14 -14 -14 -14 -15 -15 -14 -14 -15 -15 -15 -15 -14 -15 -15 -15 -15 -15 -15 -15 -15 -16 -16 -16 -16 -16 -16 -16 -16 -16 -16 -16 -16 -16 -16 -16 -16 -16 -16 -16 -16 -16 -16 -15 -16 -16 -16 -16 -16 -16 -16 -16 -16 -16 -16 -16 -16 -16 -16 -16
-14 -14 -14 -14 -14 -14 -14 -15 -15 -15 -15 -15 -15 -15 -15 -15 -15 -15 -15 -15 -15 -15 -15 -15 -16 -16 -16 -16 -16 -16 -16 -16 -16 -16 -16 -16 -16 -16 -16 -16 -16 -16 -16 -16 -16 -16 -15 -16 -16 -16 -16 -16 -16 -16 -16 -16 -16 -16 -16 -16 -16 -16 -16
-14 -14 -14 -14 -14 -14 -14 -15 -15 -15 -15 -15 -15 -15 -15 -15 -15 -15 -15 -16 -16 -15 -15 -15 -16 -16 -16 -16 -16 -16 -16 -16 -16 -16 -16 -16 -16 -16 -16 -16 -16 -16 -16 -16 -16 -16 -16 -16 -16 -16 -17 -16 -16 -16 -16 -16 -16 -17 -17 -17 -17 -17 -16
-14 -14 -14 -14 -14 -14 -14 -14 -14 -14 -15 -15 -15 -15 -15 -15 -15 -15 -15 -15 -15 -15 -15 -15 -15 -16 -16 -16 -16 -16 -16 -16 -16 -16 -16 -16 -16 -16 -16 -16 -16 -16 -16 -16 -16 -16 -16 -16 -16 -16 -17 -17 -17 -17 -17 -17 -17 -17 -17 -17 -17 -17 -17
-14 -14 -14 -13 -14 -14 -14 -14 -14 -14 -15 -15 -15 -15 -15 -15 -15 -15 -15 -15 -15 -15 -15 -15 -15 -16 -16 -16 -16 -16 -16 -16 -16 -16 -16 -16 -16 -16 -16 -16 -16 -16 -16 -16 -16 -16 -16 -16 -16 -16 -16 -17 -17 -17 -17 -17 -17 -17 -17 -17 -16 -16 -16
-14 -14 -14 -13 -14 -14 -14 -14 -14 -15 -15 -15 -15 -15 -15 -15 -15 -15 -15 -15 -15 -15 -15 -15 -15 -16 -16 -16 -17 -17 -16 -16 -16 -16 -16 -16 -16 -16 -16 -16 -16 -16 -16 -16 -16 -16 -16 -16 -16 -16 -17 -17 -17 -17 -17 -17 -17 -17 -17 -17 -17 -17 -17
-14 -14 -14 -14 -14 -14 -14 -14 -15 -15 -15 -15 -15 -15 -15 -15 -15 -15 -16 -16 -16 -16 -16 -15 -16 -16 -16 -16 -16 -17 -17 -16 -16 -16 -16 -16 -17 -17 -16 -16 -16 -16 -16 -16 -16 -16 -16 -16 -16 -16 -17 -17 -17 -17 -17 -17 -17 -17 -17 -17 -17 -17 -17
-14 -14 -14 -14 -14 -15 -15 -15 -15 -15 -15 -15 -15 -15 -15 -15 -15 -15 -16 -16 -16 -16 -16 -16 -16 -16 -16 -16 -16 -16 -17 -17 -16 -16 -16 -16 -16 -17 -17 -16 -16 -16 -16 -16 -16 -16 -16 -16 -16 -16 -17 -17 -17 -17 -17 -17 -17 -17 -18 -18 -18 -18 -18
-15 -15 -15 -15 -15 -15 -15 -15 -15 -15 -15 -15 -15 -15 -15 -15 -15 -16 -16 -16 -16 -16 -16 -16 -16 -16 -16 -16 -16 -16 -17 -17 -16 -16 -16 -16 -16 -16 -17 -17 -16 -16 -16 -16 -16 -17 -17 -17 -17 -17 -17 -17 -17 -17 -17 -18 -18 -18 -18 -18 -18 -18 -18
-15 -15 -15 -15 -15 -15 -15 -15 -15 -15 -15 -15 -15 -15 -15 -15 -16 -16 -16 -16 -16 -16 -16 -16 -16 -16 -16 -16 -16 -16 -17 -17 -16 -16 -16 -16 -16 -16 -16 -16 -16 -16 -16 -16 -17 -17 -17 -17 -17 -17 -17 -17 -18 -18 -18 -18 -18 -18 -18 -18 -18 -18 -18
-15 -15 -15 -15 -15 -15 -15 -15 -15 -15 -15 -15 -15 -15 -15 -15 -15 -16 -16 -16 -16 -16 -16 -16 -16 -16 -16 -16 -16 -16 -17 -17 -17 -16 -16 -16 -16 -17 -17 -17 -17 -17 -17 -17 -17 -17 -17 -17 -17 -17 -17 -18 -18 -18 -18 -18 -18 -18 -18 -18 -18 -18 -19
-15 -15 -15 -15 -15 -15 -15 -15 -15 -15 -15 -15 -15 -15 -15 -15 -15 -16 -16 -16 -16 -16 -16 -16 -16 -16 -16 -16 -16 -17 -17 -17 -17 -17 -16 -16 -17 -17 -17 -17 -17 -17 -17 -17 -17 -17 -17 -17 -17 -17 -18 -18 -18 -18 -18 -18 -18 -18 -18 -18 -19 -19 -19
-16 -16 -16 -15 -15 -15 -15 -15 -15 -15 -15 -15 -15 -15 -15 -16 -16 -16 -16 -16 -16 -16 -16 -16 -16 -16 -16 -16 -16 -17 -17 -17 -17 -17 -17 -17 -17 -17 -17 -17 -17 -17 -17 -17 -18 -18 -18 -18 -18 -18 -18 -18 -18 -18 -18 -18 -18 -18 -19 -19 -19 -19 -19
-16 -16 -16 -16 -16 -16 -15 -15 -15 -16 -16 -16 -16 -16 -16 -16 -16 -16 -16 -16 -16 -16 -16 -16 -16 -16 -16 -16 -16 -16 -17 -17 -17 -17 -17 -17 -17 -17 -17 -17 -17 -17 -17 -18 -18 -18 -18 -18 -18 -18 -18 -18 -18 -18 -18 -18 -18 -19 -19 -19 -19 -19 -19
Height
5777 5778 5779 5780 5781 5782 5783 5785 5786 5788 5789 5790 5792 5793 5795 5797 5798 5799 5800 5800 5801 5802 5802 5803 5803 5804 5804 5804 5805 5805 5806 5807 5807 5807 5807 5808 5808 5808 5808 5808 5809 5809 5809 5809 5810 5810 5810 5810 5810 5811 5811 5812 5812 5812 5811 5811 5811 5811 5811 5811 5811 5810 5810
5775 5776 5777 5778 5780 5781 5782 5783 5783 5785 5787 5788 5790 5791 5793 5794 5796 5797 5798 5799 5800 5801 5801 5801 5802 5802 5803 5803 5803 5804 5805 5805 5805 5805 5806 5806 5806 5806 5807 5807 5807 5808 5808 5808 5808 5809 5809 5809 5809 5809 5810 5811 5811 5811 5811 5810 5810 5810 5810 5810 5810 5810 5810
5773 5774 5775 5776 5778 5780 5781 5781 5781 5783 5784 5786 5788 5789 5791 5792 5793 5794 5796 5797 5799 5799 5800 5800 5800 5801 5801 5801 5802 5803 5803 5804 5804 5804 5804 5805 5804 5805 5805 5806 5806 5807 5807 5807 5808 5808 5808 5808 5807 5808 5808 5809 5810 5810 5809 5809 5809 5809 5809 5809 5808 5809 5809
5772 5772 5773 5774 5776 5778 5779 5779 5780 5781 5782 5783 5785 5787 5788 5789 5791 5792 5794 5795 5797 5797 5798 5798 5799 5800 5800 5800 5801 5801 5802 5802 5802 5802 5803 5803 5803 5803 5803 5804 5805 5805 5806 5806 5807 5807 5807 5807 5807 5807 5807 5808 5808 5809 5808 5808 5808 5808 5808 5808 5807 5807 5808
5770 5770 5771 5771 5773 5775 5777 5777 5778 5779 5780 5781 5782 5784 5786 5787 5789 5790 5792 5793 5794 5795 5796 5796 5797 5798 5798 5798 5799 5800 5800 5800 5801 5801 5801 5802 5802 5802 5802 5803 5803 5804 5804 5805 5805 5806 5806 5806 5805 5806 5806 5806 5807 5807 5807 5806 5806 5806 5807 5807 5806 5806 5807
5770 5769 5769 5769 5770 5772 5774 5775 5776 5777 5778 5779 5780 5782 5784 5785 5786 5787 5788 5790 5791 5792 5793 5794 5795 5796 5796 5797 5797 5797 5798 5798 5799 5799 5799 5800 5800 5800 5801 5801 5802 5802 5803 5803 5803 5804 5804 5804 5804 5804 5804 5805 5805 5806 5806 5805 5804 5804 5805 5806 5806 5806 5806
5770 5768 5767 5767 5768 5769 5771 5773 5774 5775 5776 5777 5778 5780 5781 5782 5783 5784 5786 5787 5788 5789 5790 5791 5792 5793 5794 5794 5795 5795 5796 5797 5797 5797 5797 5798 5798 5799 5799 5800 5800 5801 5801 5801 5801 5801 5802 5802 5802 5803 5803 5803 5804 5805 5805 5804 5803 5803 5804 5805 5805 5805 5805
5767 5765 5765 5765 5766 5767 5768 5770 5772 5773 5774 5775 5776 5777 5779 5780 5781 5782 5783 5785 5785 5786 5787 5789 5790 5791 5791 5792 5792 5793 5794 5795 5795 5795 5795 5796 5797 5797 5798 5798 5798 5799 5799 5799 5799 5799 5800 5800 5800 5801 5801 5801 5802 5803 5804 5803 5802 5801 5802 5803 5803 5803 5803
5764 5763 5763 5763 5764 5764 5765 5767 5769 5770 5772 5773 5774 5776 5777 5778 5779 5780 5782 5783 5783 5784 5785 5786 5787 5788 5789 5790 5790 5791 5792 5792 5793 5793 5793 5794 5795 5795 5796 5796 5796 5797 5797 5798 5798 5797 5797 5798 5798 5799 5799 5800 5801 5802 5802 5802 5800 5800 5801 5802 5802 5801 5802
5760 5760 5761 5761 5762 5763 5763 5764 5766 5768 5770 5771 5772 5774 5775 5776 5777 5779 5780 5781 5781 5782 5783 5784 5785 5786 5787 5788 5788 5789 5789 5790 5790 5791 5791 5792 5793 5793 5793 5794 5794 5795 5795 5796 5796 5796 5795 5796 5796 5797 5798 5798 5799 5800 5800 5800 5799 5798 5800 5801 5801 5800 5801
5758 5759 5759 5760 5761 5762 5761 5762 5763 5765 5767 5769 5770 5771 5773 5774 5775 5776 5777 5778 5779 5780 5781 5781 5782 5783 5784 5785 5786 5786 5786 5787 5788 5788 5789 5790 5791 5791 5791 5791 5792 5793 5793 5794 5794 5794 5794 5794 5795 5795 5796 5796 5797 5798 5798 5798 5797 5797 5798 5800 5800 5800 5800
5756 5757 5757 5758 5760 5760 5760 5759 5760 5762 5763 5765 5766 5768 5770 5771 5772 5773 5774 5775 5776 5777 5778 5779 5780 5780 5781 5782 5783 5784 5784 5784 5785 5786 5787 5788 5789 5789 5789 5789 5790 5791 5791 5792 5792 5793 5792 5792 5793 5793 5794 5795 5795 5796 5796 5796 5795 5795 5796 5798 5798 5798 5798
5753 5754 5755 5756 5757 5757 5756 5756 5756 5758 5759 5761 5763 5764 5766 5767 5768 5769 5770 5772 5773 5775 5775 5776 5777 5778 5778 5779 5780 5780 5781 5782 5783 5784 5785 5785 5786 5787 5787 5787 5788 5789 5789 5789 5790 5791 5791 5791 5791 5792 5792 5793 5793 5794 5794 5794 5794 5794 5795 5796 5796 5796 5797
5751 5752 5753 5754 5754 5753 5753 5753 5754 5754 5756 5757 5759 5761 5763 5764 5765 5766 5767 5769 5770 5772 5772 5773 5774 5775 5775 5776 5777 5777 5778 5779 5781 5782 5783 5783 5784 5784 5784 5785 5786 5787 5788 5788 5788 5788 5789 5789 5789 5790 5791 5791 5792 5792 5793 5792 5792 5792 5793 5794 5794 5794 5794
5749 5750 5751 5751 5750 5752 5753 5752 5752 5753 5753 5754 5756 5758 5759 5761 5762 5764 5765 5766 5768 5769 5770 5771 5771 5772 5772 5773 5774 5775 5775 5777 5778 5779 5780 5781 5782 5782 5782 5783 5784 5785 5786 5786 5786 5786 5787 5787 5787 5788 5789 5790 5791 5791 5791 5791 5790 5791 5791 5792 5793 5793 5793
5747 5749 5749 5748 5748 5750 5751 5750 5751 5751 5751 5752 5754 5755 5757 5758 5759 5761 5763 5764 5765 5767 5767 5768 5768 5769 5769 5770 5771 5772 5773 5774 5775 5777 5778 5779 5779 5779 5780 5781 5782 5783 5784 5784 5784 5785 5785 5785 5786 5787 5788 5789 5790 5790 5789 5789 5789 5789 5789 5790 5791 5791 5790
5744 5745 5745 5745 5746 5748 5748 5748 5749 5749 5749 5750 5752 5753 5754 5756 5757 5759 5761 5762 5763 5764 5764 5765 5765 5766 5766 5767 5769 5770 5770 5771 5773 5774 5775 5776 5776 5777 5778 5779 5779 5780 5781 5782 5783 5783 5783 5783 5784 5785 5786 5787 5788 5788 5788 5787 5787 5788 5787 5787 5788 5788 5788
5741 5741 5741 5742 5743 5745 5746 5747 5747 5747 5746 5747 5749 5750 5751 5753 5754 5756 5758 5759 5760 5761 5762 5762 5762 5763 5764 5765 5766 5766 5767 5768 5770 5771 5772 5772 5773 5774 5775 5776 5777 5778 5779 5780 5780 5780 5780 5781 5782 5783 5784 5785 5786 5786 5786 5785 5785 5786 5785 5785 5785 5785 5786
5738 5739 5738 5739 5740 5741 5743 5744 5744 5744 5743 5744 5746 5746 5747 5749 5750 5753 5755 5756 5757 5758 5759 5759 5759 5760 5761 5762 5763 5764 5764 5766 5767 5768 5769 5770 5770 5771 5772 5773 5774 5775 5777 5778 5778 5778 5778 5779 5779 5780 5782 5782 5783 5784 5783 5783 5783 5783 5783 5783 5783 5783 5783
5735 5736 5736 5737 5737 5737 5739 5740 5740 5740 5740 5741 5743 5743 5744 5745 5747 5750 5752 5754 5755 5755 5756 5756 5757 5758 5759 5760 5761 5762 5762 5764 5765 5766 5766 5767 5768 5769 5770 5771 5772 5773 5774 5775 5775 5776 5776 5776 5777 5777 5778 5779 5780 5780 5780 5780 5780 5780 5780 5780 5780 5780 5780
5731 5732 5732 5733 5734 5734 5735 5736 5737 5737 5737 5737 5740 5742 5742 5742 5744 5747 5749 5750 5751 5752 5753 5754 5755 5755 5756 5757 5758 5759 5760 5761 5762 5763 5764 5764 5765 5767 5768 5769 5770 5771 5772 5772 5772 5773 5773 5774 5774 5774 5775 5776 5776 5777 5777 5776 5776 5777 5777 5777 5777 5776 5776
5727 5728 5728 5730 5731 5732 5732 5733 5734 5734 5734 5735 5738 5739 5740 5740 5742 5743 5745 5747 5748 5748 5750 5751 5752 5752 5753 5754 5755 5756 5758 5759 5760 5761 5762 5762 5762 5764 5766 5767 5767 5768 5769 5769 5770 5770 5770 5771 5771 5771 5772 5772 5773 5773 5773 5773 5773 5773 5773 5773 5773 5773 5772
5725 5725 5725 5726 5727 5728 5729 5730 5731 5732 5732 5734 5735 5737 5738 5738 5739 5740 5742 5743 5744 5745 5747 5748 5749 5749 5750 5751 5752 5754 5755 5756 5757 5758 5759 5759 5760 5761 5763 5764 5765 5765 5766 5766 5767 5767 5768 5768 5768 5768 5768 5768 5769 5769 5769 5769 5769 5769 5769 5769 5769 5769 5769
5721 5721 5721 5722 5723 5724 5725 5727 5728 5729 5730 5731 5733 5735 5736 5735 5736 5737 5739 5739 5740 5741 5743 5745 5746 5746 5747 5748 5749 5750 5752 5753 5754 5755 5755 5756 5757 5758 5759 5761 5762 5763 5763 5764 5764 5764 5764 5764 5764 5764 5764 5764 5764 5765 5765 5765 5766 5766 5766 5766 5766 5766 5765
5716 5717 5717 5717 5718 5720 5721 5723 5725 5726 5727 5728 5730 5732 5732 5733 5733 5735 5735 5735 5736 5738 5740 5741 5742 5743 5744 5745 5746 5747 5748 5749 5751 5752 5752 5753 5754 5755 5756 5757 5758 5759 5760 5760 5761 5761 5760 5759 5759 5759 5759 5760 5760 5760 5760 5761 5762 5762 5762 5762 5762 5762 5761
5712 5712 5713 5713 5715 5716 5717 5719 5721 5722 5723 5725 5726 5727 5728 5729 5730 5732 5732 5732 5734 5735 5737 5737 5739 5740 5740 5741 5743 5744 5745 5747 5748 5749 5750 5750 5751 5752 5753 5754 5755 5756 5757 5757 5757 5757 5757 5756 5756 5755 5755 5756 5756 5756 5756 5757 5757 5758 5758 5758 5758 5757 5757
5708 5709 5709 5709 5711 5712 5713 5715 5717 5719 5719 5721 5723 5723 5724 5726 5727 5728 5729 5730 5731 5732 5733 5734 5735 5736 5737 5738 5739 5741 5742 5744 5745 5746 5747 5748 5748 5749 5750 5751 5752 5752 5753 5753 5753 5753 5753 5753 5753 5752 5752 5752 5752 5753 5753 5753 5752 5752 5752 5753 5753 5752 5752
5704 5706 5706 5706 5707 5708 5710 5712 5714 5715 5716 5718 5719 5720 5721 5722 5723 5724 5726 5727 5728 5729 5730 5731 5732 5733 5734 5735 5736 5737 5739 5741 5742 5743 5744 5745 5745 5745 5746 5747 5748 5748 5749 5749 5749 5749 5749 5749 5749 5749 5749 5748 5748 5749 5750 5749 5748 5748 5747 5747 5747 5747 5747
5701 5703 5704 5704 5704 5705 5707 5709 5710 5711 5713 5714 5715 5716 5717 5718 5720 5721 5722 5724 5725 5725 5726 5727 5728 5729 5730 5732 5733 5734 5735 5737 5739 5739 5741 5742 5742 5742 5742 5743 5744 5745 5745 5745 5745 5745 5745 5745 5745 5744 5744 5744 5745 5745 5745 5745 5745 5744 5744 5743 5743 5742 5742
5698 5699 5700 5701 5702 5703 5705 5706 5707 5708 5710 5710 5711 5712 5713 5715 5716 5717 5718 5719 5721 5722 5723 5724 5725 5726 5727 5729 5731 5731 5732 5733 5735 5735 5737 5738 5739 5739 5738 5738 5739 5740 5740 5740 5740 5740 5740 5740 5740 5740 5740 5741 5741 5741 5741 5741 5741 5740 5740 5739 5739 5738 5738
5695 5696 5698 5699 5700 5701 5702 5703 5704 5706 5707 5707 5708 5708 5710 5711 5712 5713 5714 5716 5717 5718 5719 5721 5722 5723 5724 5726 5727 5728 5729 5730 5730 5731 5732 5733 5735 5736 5736 5735 5735 5735 5735 5736 5736 5736 5736 5736 5736 5736 5737 5737 5738 5738 5737 5737 5736 5736 5736 5735 5734 5733 5733
5693 5694 5695 5696 5697 5699 5699 5700 5701 5703 5703 5704 5705 5706 5706 5707 5708 5709 5710 5712 5713 5715 5716 5717 5719 5720 5721 5722 5723 5724 5725 5726 5726 5727 5728 5729 5730 5731 5731 5731 5731 5731 5731 5731 5732 5732 5732 5733 5733 5733 5734 5734 5734 5733 5733 5733 5732 5731 5731 5730 5729 5728 5728
5690 5691 5692 5693 5695 5696 5697 5697 5698 5699 5700 5701 5702 5702 5702 5703 5704 5705 5707 5708 5709 5711 5712 5713 5715 5716 5717 5718 5719 5720 5721 5722 5722 5723 5723 5724 5724 5725 5726 5726 5726 5727 5727 5727 5728 5729 5729 5730 5730 5730 5730 5729 5729 5729 5728 5728 5727 5726 5725 5725 5724 5724 5723
5687 5688 5689 5691 5692 5693 5694 5694 5694 5695 5696 5698 5698 5699 5699 5701 5702 5703 5703 5704 5705 5707 5708 5709 5711 5712 5714 5715 5715 5716 5717 5717 5717 5718 5719 5719 5719 5719 5720 5720 5721 5722 5723 5723 5724 5725 5725 5726 5726 5725 5725 5725 5725 5724 5724 5723 5722 5722 5721 5720 5720 5719 5718
5687 5687 5688 5688 5689 5689 5690 5690 5691 5692 5693 5694 5695 5696 5697 5697 5698 5699 5700 5701 5702 5703 5704 5705 5707 5708 5709 5710 5711 5712 5713 5713 5713 5714 5714 5714 5714 5714 5715 5715 5716 5717 5718 5719 5720 5720 5721 5721 5721 5720 5720 5720 5719 5719 5719 5718 5718 5717 5717 5716 5715 5714 5713
5685 5685 5685 5685 5686 5686 5686 5686 5687 5688 5689 5690 5691 5692 5693 5694 5694 5695 5696 5697 5698 5699 5700 5702 5703 5704 5705 5706 5706 5707 5708 5708 5709 5709 5710 5710 5710 5710 5711 5711 5712 5713 5714 5714 5715 5715 5716 5716 5715 5715 5715 5715 5714 5714 5714 5713 5713 5712 5711 5710 5709 5708 5707
5681 5681 5681 5681 5682 5682 5683 5683 5683 5684 5685 5686 5687 5688 5689 5690 5690 5691 5692 5693 5694 5695 5696 5697 5698 5699 5700 5700 5701 5702 5703 5704 5704 5705 5706 5706 5706 5706 5707 5708 5708 5709 5709 5710 5710 5710 5710 5710 5710 5710 5709 5709 5709 5708 5708 5708 5707 5706 5705 5704 5703 5702 5701
Wind_Speed
18 20 19 19 21 21 21 21 18 18 18 19 19 19 19 20 21 21 20 20 20 19 19 18 17 16 16 15 14 13 12 12 12 11 11 10 10 11 10 8 8 7 7 7 8 8 7 7 7 7 7 7 7 7 7 7 7 7 7 7 6 6 5
14 16 16 17 20 21 21 20 18 18 19 19 19 20 20 20 20 19 19 20 20 19 19 19 18 18 17 16 15 14 14 13 13 12 12 11 11 11 10 9 8 8 8 8 8 8 8 8 8 8 8 8 8 8 9 9 8 8 8 7 7 6 6
15 14 13 14 17 20 20 18 17 19 19 20 20 20 21 20 19 18 19 20 20 20 20 19 19 18 17 17 16 15 14 14 15 14 13 12 12 11 10 10 9 9 9 9 9 9 9 9 9 9 9 10 10 10 10 10 10 10 9 8 8 7 7
16 15 13 12 14 17 19 17 17 18 19 20 21 21 21 20 19 19 20 20 20 20 20 20 20 19 18 17 16 15 15 15 16 15 14 13 12 12 11 11 10 9 10 10 10 11 10 10 10 10 10 11 11 10 11 12 11 10 9 8 9 8 8
17 15 14 13 13 14 16 16 15 17 18 19 21 22 22 21 21 20 20 20 19 20 20 20 20 18 17 17 16 16 16 16 16 15 15 14 12 12 12 11 10 10 10 11 11 12 12 12 11 11 11 12 11 11 12 13 12 11 10 9 10 10 9
18 16 16 15 14 13 13 14 15 16 18 19 20 22 23 22 22 21 20 20 20 20 20 20 20 19 18 17 17 18 17 17 15 15 14 14 13 13 12 11 11 11 12 13 13 13 13 13 13 12 12 13 13 12 13 13 13 12 11 11 11 11 10
16 15 18 18 16 14 13 13 15 17 18 19 21 22 23 22 21 21 21 21 21 21 21 21 20 19 19 19 19 18 17 16 15 15 15 14 14 13 12 12 12 12 13 14 14 14 14 14 13 13 13 14 14 13 14 13 14 14 12 12 12 11 10
17 13 17 19 18 16 14 15 17 18 19 20 20 22 23 22 21 21 22 22 22 22 22 22 21 20 21 20 20 19 18 17 16 16 15 15 15 14 13 13 13 13 14 14 14 14 15 14 14 13 14 14 14 14 14 14 15 14 12 11 11 11 10
21 13 13 16 19 18 16 18 20 21 21 20 20 22 22 22 22 22 22 23 23 23 23 22 22 22 22 21 20 20 18 17 16 16 16 15 15 15 14 14 14 14 14 13 13 14 14 14 14 13 13 14 14 13 14 15 16 15 13 11 11 10 9
22 15 11 13 17 19 19 19 22 23 22 21 22 23 23 23 22 22 22 23 23 23 23 23 23 23 23 22 21 20 19 18 17 16 16 16 16 16 16 16 15 15 14 13 13 13 14 13 13 13 13 14 14 14 15 16 17 16 13 12 12 11 9
22 17 12 11 15 19 20 20 21 22 22 23 23 24 23 22 22 22 23 23 23 24 24 24 25 25 24 23 21 20 20 19 17 16 17 17 17 17 17 17 15 14 15 14 12 12 13 13 13 13 13 14 15 15 16 17 17 16 14 13 13 12 11
22 20 16 11 11 17 20 21 23 22 22 24 26 25 23 22 23 23 24 24 25 25 26 26 26 26 25 23 22 20 20 19 17 16 17 18 18 18 18 17 15 14 15 15 13 13 13 13 13 13 14 15 16 16 16 17 17 17 15 13 12 13 12
23 21 18 11 9 15 21 23 25 25 23 25 28 27 24 23 24 24 24 25 25 26 27 27 27 26 25 23 22 21 20 19 17 17 18 18 19 19 18 17 16 14 15 16 15 14 14 13 13 14 15 16 16 16 16 16 16 17 15 12 12 13 12
23 23 21 16 13 18 23 23 24 25 25 26 28 26 24 24 23 24 24 25 26 27 27 27 26 25 24 23 22 21 21 19 18 18 18 19 19 19 19 18 17 16 16 16 16 15 15 14 14 15 16 16 16 16 16 16 17 17 16 13 13 14 13
22 23 24 22 20 20 23 23 23 25 26 28 27 25 23 23 23 24 25 26 26 27 27 26 25 24 23 22 21 21 21 20 19 19 19 19 19 20 20 19 18 17 16 16 16 15 15 14 14 15 16 16 16 16 17 17 18 18 17 15 14 14 14
20 21 23 24 21 19 21 23 24 26 27 27 24 23 22 22 23 24 25 26 27 26 26 24 23 23 22 22 21 21 21 20 20 19 19 19 20 21 21 20 19 18 17 17 16 15 15 14 14 15 16 16 16 17 18 19 19 19 19 17 15 15 15
18 20 22 24 21 20 22 25 26 27 29 27 21 20 22 22 22 24 25 26 27 26 24 23 22 22 22 22 21 21 22 21 20 19 20 21 22 23 22 21 20 19 19 18 17 16 15 15 15 16 17 17 17 18 19 20 20 20 20 19 17 16 16
19 20 22 23 21 21 23 26 28 30 33 32 25 22 23 23 23 24 25 26 26 24 23 22 23 23 22 22 22 22 22 21 20 20 21 22 23 23 23 22 21 21 20 19 18 18 17 16 16 16 17 17 18 19 20 21 21 21 21 21 20 18 18
18 19 22 23 23 23 24 26 30 32 34 34 31 27 26 26 25 25 26 25 24 23 22 22 23 23 22 22 22 22 22 21 20 21 22 23 24 24 24 23 23 22 21 21 20 20 19 18 18 17 17 18 19 20 20 21 22 22 22 22 22 21 20
17 19 22 23 25 26 25 27 32 33 32 32 32 30 28 27 26 25 25 24 23 23 22 22 22 22 22 22 21 21 22 21 21 22 23 24 25 25 25 24 24 23 22 22 22 21 20 20 19 19 19 20 21 20 20 21 22 22 23 22 22 22 21
19 20 22 23 26 27 26 27 30 32 33 32 30 28 26 26 27 25 24 23 23 24 23 22 21 21 21 21 21 21 21 21 22 23 24 25 26 26 25 24 24 24 23 23 23 22 22 21 21 21 20 21 21 21 21 22 22 22 22 22 22 22 22
21 22 23 24 25 26 27 28 28 29 31 30 29 29 28 27 27 27 24 24 25 27 26 23 22 21 22 22 22 21 21 21 23 23 24 26 27 26 25 25 25 25 24 24 24 23 23 22 22 22 22 22 22 22 22 23 23 22 22 22 23 23 23
23 23 24 25 25 26 28 30 30 29 29 29 30 31 29 28 28 28 26 26 28 30 28 25 23 23 23 23 22 22 22 22 23 24 25 26 27 26 26 25 25 24 24 24 23 23 23 23 24 24 24 24 24 24 24 24 24 24 24 24 24 24 24
24 25 25 26 27 27 29 32 33 31 28 27 27 27 27 29 29 28 28 29 31 31 29 27 25 24 24 24 24 23 23 24 24 25 26 27 27 27 26 25 24 22 22 22 22 22 22 24 26 27 26 27 26 26 26 26 26 26 26 26 26 25 26
26 26 26 27 28 27 28 32 36 35 29 25 24 24 25 27 27 28 31 33 33 32 30 28 25 24 25 25 25 25 24 24 24 24 25 26 26 25 25 23 22 22 21 21 21 22 22 22 24 26 26 28 28 28 27 27 26 26 26 26 26 27 27
24 25 26 28 28 27 28 32 37 38 32 24 23 24 25 26 27 30 33 35 34 32 30 28 25 25 26 26 26 26 25 23 23 23 24 25 25 24 24 24 23 22 21 22 22 23 24 25 26 27 27 27 28 28 28 27 27 26 26 27 27 28 29
22 23 24 27 29 29 31 33 36 39 35 26 23 25 25 27 30 32 34 35 34 33 31 29 27 26 27 27 27 27 25 23 22 23 24 25 26 25 25 25 24 23 23 24 24 24 26 27 29 30 30 29 28 28 27 27 28 29 28 28 29 29 30
20 21 24 28 30 30 33 34 36 40 37 28 25 25 25 26 29 31 33 34 34 35 34 31 29 28 28 28 29 28 26 24 24 24 25 26 27 28 28 27 26 26 26 26 26 27 28 29 29 31 31 31 30 29 28 28 30 30 30 30 31 31 32
20 21 25 30 30 30 33 34 37 41 36 27 26 26 25 26 28 28 30 32 34 37 35 32 31 30 29 29 29 29 28 26 26 27 27 27 28 30 31 30 28 28 28 28 29 30 31 31 31 31 32 31 31 30 30 30 30 30 30 31 31 32 32
20 21 23 26 27 29 31 33 37 40 34 27 26 27 27 28 30 30 30 32 35 36 34 32 31 31 30 29 29 29 29 28 28 28 28 28 28 29 30 31 31 30 31 31 32 33 34 34 34 33 32 31 30 29 29 30 30 30 30 30 31 32 33
22 22 22 23 25 27 30 32 37 37 31 26 27 29 30 31 32 31 31 31 33 33 32 31 32 31 30 29 29 29 28 28 29 29 29 29 29 29 29 31 32 33 34 35 34 34 35 36 35 33 32 31 30 29 29 29 30 30 30 31 32 33 34
25 24 24 24 24 26 30 34 38 36 30 27 29 32 34 34 33 31 31 30 31 32 32 32 32 31 30 29 29 29 29 28 29 29 29 29 30 30 31 32 33 34 35 35 33 33 34 35 34 33 32 32 31 31 30 30 31 31 32 33 34 34 35
22 23 25 25 25 27 30 34 37 35 32 31 32 34 35 36 34 30 29 29 31 31 31 31 31 31 31 31 31 31 31 31 31 30 31 31 31 31 32 33 32 32 33 32 31 32 33 34 33 33 32 32 32 32 33 33 33 34 34 35 35 36 37
16 21 26 28 29 31 33 36 37 36 35 33 32 33 35 35 34 31 29 28 29 30 30 30 30 30 30 31 33 34 34 34 33 33 33 32 31 31 32 31 30 30 30 31 31 32 33 33 34 34 34 34 34 35 36 36 36 36 36 37 37 38 38
18 24 27 30 32 33 35 37 38 37 36 34 33 34 37 37 37 34 30 28 29 29 30 30 30 30 30 32 34 35 35 35 35 35 34 32 31 30 30 30 30 30 30 31 31 32 33 34 35 35 36 37 37 38 38 38 38 38 38 38 39 39 40
19 23 26 29 31 32 34 37 38 37 36 35 34 35 37 41 42 37 31 29 29 29 30 31 31 32 34 35 36 36 37 37 37 35 33 31 30 29 30 30 30 30 31 31 32 34 35 36 37 37 38 38 39 39 40 40 40 40 40 40 41 42 43
20 21 21 23 25 27 30 34 37 36 34 34 35 34 34 38 41 39 35 33 33 33 33 33 34 36 37 37 37 38 38 37 35 33 30 29 30 30 31 31 31 31 32 33 35 36 37 38 39 40 41 42 42 42 42 42 42 42 43 43 44 45 46
Wind_Direction
244 237 239 237 224 217 215 214 210 208 208 209 212 214 213 213 210 210 212 212 210 211 213 214 214 212 211 213 214 213 219 227 230 233 234 234 238 242 245 244 241 238 233 229 226 221 216 211 207 213 215 209 208 203 200 208 206 194 186 180 187 198 204
241 238 247 245 231 224 221 218 210 203 206 210 214 215 213 214 213 211 213 212 211 212 213 214 214 212 211 213 215 216 221 229 233 235 235 234 238 242 245 244 241 238 233 229 227 224 221 218 214 215 214 206 206 206 204 209 210 205 198 194 200 210 218
244 241 251 256 244 233 228 224 214 206 208 213 215 215 213 214 212 211 213 214 213 214 215 215 215 214 212 213 217 221 224 229 232 233 233 233 235 239 242 240 238 237 236 233 233 234 234 230 228 225 216 208 207 204 203 209 214 213 208 208 215 219 222
249 240 242 252 252 245 238 231 221 216 217 216 213 211 210 210 209 210 213 215 214 215 216 216 216 214 214 216 220 225 229 230 231 233 233 231 231 235 239 240 237 237 239 239 238 241 243 242 241 234 222 218 216 208 207 215 220 222 219 219 226 226 222
252 241 235 240 248 250 242 233 230 229 224 217 211 207 206 206 207 208 210 212 213 215 216 216 216 216 217 221 223 227 232 232 232 233 233 231 228 231 236 239 239 240 243 246 246 247 249 248 246 237 225 224 223 215 216 221 225 229 228 224 227 228 222
251 240 230 231 237 241 239 235 234 228 218 213 210 207 204 204 204 204 207 210 213 216 216 215 216 219 221 224 227 230 233 234 232 230 231 231 229 231 234 238 241 244 247 251 251 251 250 249 247 240 228 227 227 220 220 225 229 232 228 221 222 223 219
247 242 231 225 223 227 234 233 229 223 215 213 212 210 208 205 203 203 206 210 214 216 216 216 217 221 225 228 231 233 234 233 231 229 229 229 230 231 233 238 243 246 248 251 253 251 249 248 247 241 232 230 228 221 220 226 232 235 228 220 218 214 210
241 245 237 228 218 217 226 227 224 223 219 215 214 215 212 205 204 207 208 210 214 216 219 220 220 224 229 232 235 236 234 231 229 230 231 230 232 233 235 240 245 247 249 251 252 250 246 244 242 238 234 233 228 221 220 224 231 235 230 223 221 213 205
236 250 253 238 223 214 217 219 217 218 216 215 218 219 214 207 207 211 213 214 217 219 222 225 225 227 232 235 238 239 237 232 230 232 235 235 236 235 234 239 244 249 251 250 248 247 243 240 238 235 233 232 229 223 221 223 228 233 228 221 224 220 212
232 249 263 250 234 221 215 213 213 212 212 215 221 218 213 211 212 215 219 220 222 225 227 230 231 233 234 236 238 241 240 236 233 234 237 238 237 235 235 237 242 247 251 250 246 243 238 235 234 231 228 229 227 221 219 220 225 229 223 212 219 224 220
229 242 254 255 247 237 225 215 213 214 216 218 220 216 214 217 220 223 225 226 227 230 231 234 236 237 238 238 238 239 240 237 235 237 240 240 237 234 235 238 241 246 251 252 247 240 234 229 227 226 224 224 222 218 216 217 222 228 222 209 213 223 224
225 234 244 247 250 248 241 229 220 219 222 223 219 216 218 222 226 228 229 230 231 233 235 237 239 240 241 240 239 239 239 236 236 240 243 242 238 235 236 240 243 247 252 255 249 240 232 225 222 223 221 221 220 216 214 216 222 227 224 212 215 225 229
224 228 235 240 253 249 243 237 228 222 223 225 221 218 221 224 226 229 231 232 234 235 237 239 240 241 242 241 241 242 241 240 241 243 243 241 238 235 237 241 244 246 252 255 250 240 233 227 223 222 219 219 220 215 212 217 225 229 227 220 223 233 239
228 231 230 234 249 238 226 226 228 228 226 223 220 220 223 224 225 229 231 234 235 236 238 239 239 240 240 241 242 244 245 246 245 244 242 241 239 237 238 240 242 244 249 253 250 242 234 229 225 221 219 219 219 216 213 219 228 232 231 227 229 239 248
228 233 232 235 242 232 220 222 230 235 229 220 217 219 222 223 224 228 231 234 236 236 238 239 239 240 240 240 241 244 246 248 247 245 243 242 240 238 238 239 240 242 246 250 249 243 233 226 221 218 217 215 214 215 215 219 227 233 238 237 236 241 250
229 233 236 237 238 232 225 225 229 233 226 216 215 219 222 223 225 227 232 234 236 236 238 240 240 240 240 240 241 243 245 246 247 245 243 240 238 237 237 239 239 241 245 247 247 243 233 223 216 212 212 211 210 214 218 221 228 237 246 249 246 246 250
227 232 235 235 235 235 229 224 225 228 221 214 218 223 225 227 228 228 231 234 235 238 239 240 241 241 241 241 241 243 245 245 245 243 240 238 237 236 236 238 239 241 244 245 244 242 235 225 218 213 211 211 212 216 222 228 234 242 250 256 256 254 256
226 231 234 232 233 236 231 225 224 225 223 220 224 230 231 230 230 230 232 235 238 241 241 241 242 241 242 242 242 242 244 245 243 240 239 237 236 236 236 236 238 239 242 245 244 242 237 232 227 222 218 218 219 222 228 235 241 246 252 258 261 260 260
241 240 236 231 232 233 231 227 224 224 226 225 224 229 233 232 230 230 233 236 239 242 243 243 244 244 244 244 244 244 246 246 243 241 241 239 237 237 236 236 237 239 241 243 244 243 241 237 234 231 229 228 229 231 235 240 244 248 252 257 261 262 260
257 249 240 233 232 233 231 229 226 221 222 224 224 228 232 231 228 229 233 237 239 241 243 245 248 248 248 247 246 246 247 247 244 242 242 241 239 238 238 238 239 240 241 242 243 244 244 242 241 239 237 237 238 241 244 247 247 249 252 256 259 261 260
260 251 246 238 235 236 234 232 228 220 220 225 227 230 233 233 229 225 229 235 239 243 246 249 251 251 249 248 246 244 245 245 243 242 241 242 242 241 241 242 243 243 243 244 245 245 246 247 246 246 243 242 244 247 249 252 252 253 255 258 259 259 259
260 254 250 241 236 237 233 229 225 221 224 231 233 232 234 236 231 222 222 231 237 241 246 250 252 250 247 247 245 244 243 242 242 242 242 244 245 245 244 244 245 245 245 246 248 248 250 250 251 250 248 246 247 248 250 252 254 254 256 258 258 256 256
263 257 249 242 239 237 230 224 219 219 225 233 235 235 234 235 230 221 219 228 234 238 243 248 250 248 245 245 245 244 242 241 242 243 243 245 247 248 247 245 245 245 246 248 250 251 253 254 253 252 250 248 247 248 249 249 250 251 253 255 256 255 255
261 257 251 245 243 239 231 224 220 220 225 229 234 238 237 236 232 221 218 227 233 236 241 245 247 246 244 244 244 243 243 243 244 245 246 247 248 248 248 245 243 243 244 247 249 252 255 256 255 253 251 250 250 249 249 249 247 248 249 250 253 255 256
256 256 252 248 245 241 234 226 220 219 224 226 229 236 237 235 234 226 223 228 232 235 240 244 245 245 244 242 242 242 243 245 245 244 245 246 246 245 244 242 241 242 243 246 248 250 252 254 257 256 254 253 254 254 253 252 250 250 250 251 254 257 259
254 254 252 249 245 241 233 225 218 217 221 226 229 234 236 234 231 228 227 230 234 237 240 243 244 244 242 241 240 240 241 243 244 244 243 244 244 242 241 242 243 244 247 251 252 252 251 251 253 256 257 257 257 257 258 258 256 254 253 253 255 256 258
253 255 258 253 247 240 229 222 220 218 221 229 233 235 239 237 231 229 227 229 233 236 238 242 244 243 241 239 239 240 241 241 243 243 242 242 244 243 243 246 249 252 255 257 257 256 254 252 250 252 256 258 257 257 258 259 259 257 257 257 256 257 257
253 256 254 243 239 235 224 220 222 220 221 232 237 237 242 238 232 233 233 230 230 231 235 241 244 242 238 237 238 241 242 242 243 245 245 245 247 249 250 251 253 257 259 260 260 259 256 255 252 251 252 254 254 253 252 253 256 259 261 262 262 262 263
246 250 245 233 227 224 219 221 225 221 223 236 241 240 241 234 229 234 237 234 230 228 232 239 243 241 237 235 237 241 244 246 247 248 248 248 249 253 255 256 255 256 258 260 261 259 256 254 252 251 251 252 252 253 253 254 257 259 262 264 267 269 270
238 243 242 233 224 218 219 226 226 221 226 242 247 245 241 233 229 231 232 231 229 227 231 238 240 239 237 235 237 241 245 248 250 250 250 249 249 251 255 258 257 256 256 258 260 259 256 254 252 251 252 254 256 258 259 260 261 263 265 267 269 270 271
239 242 240 235 227 222 226 230 224 222 232 246 249 247 241 232 228 226 224 225 227 229 234 237 237 237 237 236 238 241 245 248 248 249 249 249 249 249 251 255 258 259 259 260 261 259 256 255 254 255 257 260 261 262 263 264 266 267 269 270 271 271 272
235 239 237 235 230 228 233 229 218 219 234 245 247 246 238 228 222 220 221 224 228 232 234 236 236 237 237 238 240 243 246 248 249 250 251 252 253 253 252 254 256 257 259 260 259 257 256 256 257 258 261 263 264 265 266 267 269 269 270 271 272 273 274
230 233 234 236 230 229 235 228 217 221 236 243 244 242 233 224 218 219 223 227 229 233 235 235 237 238 239 241 243 245 248 250 250 252 255 258 259 257 254 253 254 256 258 258 255 253 254 257 259 261 262 263 265 266 267 268 268 269 270 271 272 273 274
255 245 238 238 232 228 231 228 224 231 241 242 238 232 225 222 223 226 231 232 231 232 234 236 240 243 244 246 248 250 252 253 254 255 258 259 257 253 252 252 252 255 256 255 253 251 253 257 260 262 262 263 263 264 264 265 267 268 270 271 272 274 276
266 255 247 244 237 229 228 229 232 239 241 239 234 227 223 224 226 229 231 233 233 234 237 241 245 247 249 252 254 255 254 254 255 255 255 254 252 250 250 251 252 254 254 254 254 254 255 257 259 260 261 262 263 264 265 267 268 270 271 272 273 275 277
253 254 253 250 244 238 235 234 236 240 240 237 233 230 228 227 227 228 232 234 236 238 241 244 246 247 249 250 249 250 252 252 252 251 250 250 250 251 252 254 256 258 258 258 257 257 258 259 260 262 263 264 265 266 267 269 270 271 272 272 273 276 278
254 254 252 248 248 250 247 242 240 241 241 238 235 235 236 232 228 230 235 239 242 245 244 243 243 243 243 240 238 240 243 245 245 245 245 246 247 249 252 255 257 259 259 259 260 260 261 263 264 266 267 268 269 269 270 270 271 272 272 274 276 278 280